Previsão horária em Celso Ramos

Hoje, 25 Julho, Domingo

Tempo Temperatura Precipitação Vento Pressão Humidade
00:00 +13°C° 0 mm 1 m/s 701 mmHg 77%
01:00 +12°C° 0 mm 1 m/s 701 mmHg 79%
02:00 +12°C° 0 mm 1 m/s 701 mmHg 80%
03:00 +12°C° 0 mm 1 m/s 701 mmHg 82%
04:00 +11°C° 0 mm 1 m/s 701 mmHg 84%
05:00 +11°C° 0 mm 1 m/s 700 mmHg 85%
06:00 +11°C° 0 mm 1 m/s 700 mmHg 87%
07:00 +13°C° 0 mm 1 m/s 700 mmHg 79%
08:00 +14°C° 0 mm 1 m/s 701 mmHg 72%
09:00 +16°C° 0 mm 1 m/s 701 mmHg 65%
10:00 +19°C° 0 mm 2 m/s 701 mmHg 56%
11:00 +21°C° 0 mm 2 m/s 702 mmHg 47%
12:00 +25°C° 0 mm 2 m/s 702 mmHg 39%
13:00 +26°C° 0 mm 2 m/s 701 mmHg 38%
14:00 +27°C° 0 mm 2 m/s 700 mmHg 38%
15:00 +28°C° 0 mm 2 m/s 700 mmHg 37%
16:00 +25°C° 0 mm 2 m/s 700 mmHg 47%
17:00 +23°C° 0 mm 1 m/s 699 mmHg 57%
18:00 +20°C° 0 mm 1 m/s 699 mmHg 66%
19:00 +19°C° 0 mm 1 m/s 699 mmHg 69%
20:00 +18°C° 0 mm 1 m/s 700 mmHg 71%
21:00 +16°C° 0 mm 1 m/s 700 mmHg 73%
22:00 +16°C° 0 mm 1 m/s 700 mmHg 75%
23:00 +15°C° 0 mm 1 m/s 700 mmHg 76%

Amanhã, 26 Julho, Segunda-feira

Tempo Temperatura Precipitação Vento Pressão Humidade
00:00 +15°C° 0 mm 1 m/s 700 mmHg 77%
01:00 +15°C° 0 mm 1 m/s 700 mmHg 78%
02:00 +14°C° 0 mm 1 m/s 700 mmHg 78%
03:00 +14°C° 0 mm 1 m/s 699 mmHg 78%
04:00 +14°C° 0 mm 1 m/s 699 mmHg 78%
05:00 +14°C° 0 mm 1 m/s 699 mmHg 78%
06:00 +13°C° 0 mm 1 m/s 698 mmHg 77%
07:00 +15°C° 0 mm 1 m/s 699 mmHg 72%
08:00 +16°C° 0 mm 1 m/s 699 mmHg 67%
09:00 +19°C° 0 mm 1 m/s 699 mmHg 61%
10:00 +20°C° 0 mm 2 m/s 699 mmHg 54%
11:00 +24°C° 0 mm 2 m/s 699 mmHg 47%
12:00 +26°C° 0 mm 2 m/s 699 mmHg 40%
13:00 +27°C° 0 mm 2 m/s 699 mmHg 38%
14:00 +28°C° 0 mm 2 m/s 698 mmHg 37%
15:00 +29°C° 0 mm 2 m/s 698 mmHg 35%
16:00 +27°C° 0 mm 2 m/s 697 mmHg 42%
17:00 +24°C° 0 mm 1 m/s 697 mmHg 48%
18:00 +22°C° 0 mm 1 m/s 697 mmHg 54%
19:00 +22°C° 0 mm 1 m/s 697 mmHg 56%
20:00 +21°C° 0 mm 1 m/s 698 mmHg 58%
21:00 +21°C° 0 mm 1 m/s 698 mmHg 60%
22:00 +20°C° 0 mm 1 m/s 698 mmHg 62%
23:00 +19°C° 0 mm 1 m/s 698 mmHg 64%

Depois de amanhã, 27 Julho, Terça-feira

Tempo Temperatura Precipitação Vento Pressão Humidade
00:00 +18°C° 0 mm 1 m/s 697 mmHg 67%
01:00 +18°C° 0 mm 1 m/s 697 mmHg 70%
02:00 +18°C° 0 mm 1 m/s 697 mmHg 74%
03:00 +15°C° 0 mm 0 m/s 697 mmHg 77%
04:00 +15°C° 0.1 mm 0 m/s 697 mmHg 83%
05:00 +15°C° 0.1 mm 1 m/s 698 mmHg 88%
06:00 +15°C° 0.1 mm 1 m/s 698 mmHg 94%
07:00 +15°C° 0.9 mm 1 m/s 698 mmHg 95%
08:00 +15°C° 0.9 mm 1 m/s 698 mmHg 96%
09:00 +15°C° 0.9 mm 1 m/s 699 mmHg 97%
10:00 +15°C° 2.4 mm 2 m/s 698 mmHg 97%
11:00 +15°C° 2.4 mm 2 m/s 698 mmHg 96%
12:00 +14°C° 2.4 mm 3 m/s 698 mmHg 95%
13:00 +13°C° 2.7 mm 3 m/s 698 mmHg 95%
14:00 +11°C° 2.7 mm 3 m/s 698 mmHg 95%
15:00 +10°C° 2.7 mm 3 m/s 698 mmHg 94%
16:00 +9°C° 0.2 mm 3 m/s 698 mmHg 94%
17:00 +8°C° 0.2 mm 2 m/s 699 mmHg 93%
18:00 +8°C° 0.2 mm 2 m/s 700 mmHg 92%
19:00 +7°C° 0 mm 2 m/s 700 mmHg 92%
20:00 +7°C° 0 mm 2 m/s 701 mmHg 91%
21:00 +6°C° 0 mm 2 m/s 701 mmHg 90%
22:00 +5°C° 0 mm 2 m/s 701 mmHg 90%
23:00 +5°C° 0 mm 1 m/s 701 mmHg 90%

28 Julho, Quarta-feira

Tempo Temperatura Precipitação Vento Pressão Humidade
00:00 +4°C° 0 mm 1 m/s 701 mmHg 90%
01:00 +3°C° 0 mm 1 m/s 701 mmHg 91%
02:00 +3°C° 0 mm 1 m/s 701 mmHg 91%
03:00 +2°C° 0 mm 1 m/s 701 mmHg 92%
04:00 +1°C° 0 mm 1 m/s 701 mmHg 93%
05:00 +1°C° 0 mm 1 m/s 702 mmHg 93%
06:00 0°C° 0 mm 1 m/s 702 mmHg 94%
07:00 +1°C° 0 mm 1 m/s 702 mmHg 86%
08:00 +1°C° 0 mm 2 m/s 703 mmHg 79%
09:00 +2°C° 0 mm 2 m/s 703 mmHg 72%
10:00 +3°C° 0 mm 2 m/s 703 mmHg 63%
11:00 +4°C° 0 mm 3 m/s 703 mmHg 55%
12:00 +5°C° 0 mm 3 m/s 703 mmHg 47%
13:00 +6°C° 0 mm 4 m/s 702 mmHg 46%
14:00 +6°C° 0 mm 4 m/s 702 mmHg 46%
15:00 +7°C° 0 mm 4 m/s 702 mmHg 46%
16:00 +5°C° 0 mm 4 m/s 702 mmHg 52%
17:00 +4°C° 0 mm 3 m/s 702 mmHg 57%
18:00 +3°C° 0 mm 3 m/s 702 mmHg 63%
19:00 +2°C° 0 mm 3 m/s 703 mmHg 68%
20:00 +2°C° 0 mm 2 m/s 703 mmHg 73%
21:00 +1°C° 0 mm 2 m/s 703 mmHg 78%
22:00 +1°C° 0 mm 2 m/s 704 mmHg 83%
23:00 -1°C° 0 mm 2 m/s 704 mmHg 87%

29 Julho, Quinta-feira

Tempo Temperatura Precipitação Vento Pressão Humidade
00:00 +1°C° 0 mm 1 m/s 704 mmHg 91%
01:00 -1°C° 0 mm 2 m/s 704 mmHg 88%
02:00 -1°C° 0 mm 3 m/s 704 mmHg 84%
03:00 -1°C° 0 mm 4 m/s 704 mmHg 81%
04:00 0°C° 0 mm 3 m/s 704 mmHg 80%
05:00 0°C° 0 mm 3 m/s 704 mmHg 78%
06:00 0°C° 0 mm 3 m/s 705 mmHg 77%
07:00 0°C° 0 mm 3 m/s 705 mmHg 75%
08:00 0°C° 0 mm 3 m/s 706 mmHg 74%
09:00 0°C° 0 mm 3 m/s 706 mmHg 72%
10:00 +2°C° 0 mm 3 m/s 706 mmHg 65%
11:00 +4°C° 0 mm 3 m/s 706 mmHg 58%
12:00 +5°C° 0 mm 3 m/s 707 mmHg 52%
13:00 +7°C° 0 mm 3 m/s 706 mmHg 52%
14:00 +7°C° 0 mm 3 m/s 706 mmHg 52%
15:00 +8°C° 0 mm 3 m/s 705 mmHg 52%
16:00 +7°C° 0 mm 2 m/s 706 mmHg 58%
17:00 +6°C° 0 mm 2 m/s 706 mmHg 64%
18:00 +5°C° 0 mm 2 m/s 706 mmHg 70%
19:00 +6°C° 0 mm 1 m/s 707 mmHg 71%
20:00 +5°C° 0 mm 1 m/s 707 mmHg 72%
21:00 +5°C° 0 mm 1 m/s 708 mmHg 73%
22:00 +5°C° 0 mm 1 m/s 708 mmHg 77%
23:00 +4°C° 0 mm 1 m/s 707 mmHg 81%

30 Julho, Sexta-feira

Tempo Temperatura Precipitação Vento Pressão Humidade
00:00 +4°C° 0 mm 1 m/s 707 mmHg 84%
01:00 +3°C° 0 mm 1 m/s 707 mmHg 88%
02:00 +2°C° 0 mm 1 m/s 707 mmHg 92%
03:00 +1°C° 0 mm 1 m/s 706 mmHg 96%
04:00 +1°C° 0 mm 1 m/s 707 mmHg 96%
05:00 0°C° 0 mm 1 m/s 707 mmHg 97%
06:00 0°C° 0 mm 1 m/s 707 mmHg 97%
07:00 +1°C° 0 mm 1 m/s 707 mmHg 90%
08:00 +3°C° 0 mm 1 m/s 708 mmHg 83%
09:00 +4°C° 0 mm 1 m/s 708 mmHg 76%
10:00 +7°C° 0 mm 1 m/s 708 mmHg 65%
11:00 +9°C° 0 mm 1 m/s 708 mmHg 54%
12:00 +12°C° 0 mm 1 m/s 708 mmHg 43%
13:00 +12°C° 0 mm 1 m/s 707 mmHg 41%
14:00 +13°C° 0 mm 1 m/s 707 mmHg 39%
15:00 +13°C° 0 mm 0 m/s 706 mmHg 36%
16:00 +12°C° 0 mm 1 m/s 706 mmHg 45%
17:00 +9°C° 0 mm 1 m/s 706 mmHg 54%
18:00 +7°C° 0 mm 1 m/s 706 mmHg 63%
19:00 +6°C° 0 mm 1 m/s 706 mmHg 67%
20:00 +5°C° 0 mm 1 m/s 706 mmHg 70%
21:00 +4°C° 0 mm 1 m/s 707 mmHg 74%
22:00 +4°C° 0 mm 1 m/s 707 mmHg 77%
23:00 +3°C° 0 mm 1 m/s 707 mmHg 80%
Mostrar mais

Necessitamos do seu Consentimento

A Meteoprog e os seus Fornecedores de Serviços podem armazenar e aceder a dados pessoais como cookies, identificadores do dispositivo ou outras tecnologias semelhantes existentes no seu dispositivo e processar estes dados para personalizar conteúdos e anúncios, assim como funcionalidades nas redes sociais e análise de tráfego.

  • Armazenar e/ou aceder a informações no seu dispositivo

    Os cookies, identificadores do dispositivo ou outras informações podem ser armazenados ou acedidos no seu dispositivo, para os fins acima indicados.

  • Anúncios e conteúdos personalizados, medição de anúncios e conteúdos, dados sobre o público-alvo e desenvolvimento de produtos

    Os anúncios e os conteúdos podem ser personalizados com base num perfil. Podem ser adicionados dados adicionais para uma maior personalização dos anúncios e dos conteúdos. A eficácia dos anúncios e dos conteúdos pode ser medida. Podem ser obtidas informações sobre o público que visualizou os anúncios e os conteúdos. Estes dados podem ser usados para desenvolver ou melhorar sistemas, softwares ou a experiência do utilizador.

Ao clicar em "Eu concordo”, permitirá o uso de cookies, identificadores do dispositivo e web beacons mencionados ou outras tecnologias semelhantes. As configurações do navegador do seu dispositivo podem ser alteradas.

Para certos fins, podem ser invocados interesses legítimos ao invés de consentimento. Pode ler mais informação sobre este assunto na nossa Política de Privacidade e Cookies.